一网星座-0455星 (ONEWEB-0455 )

导读

ONEWEB-0455是英国OneWeb公司低轨宽带卫星星座的一员,于2022年2月10日发射入轨。卫星重约147.5公斤,运行于1200公里近地轨道,配备Ku和Ka波段天线,采用氙等离子体推力器,设计寿命超7年。它旨在为全球尤其是偏远地区提供低时延宽带互联网接入,服务航空、海事、应急响应等领域,助力全球无缝网络覆盖建设。

基本信息
目录编号:
51645
目录名称:
ONEWEB-0455
国际标识:
2022-012Z
轨道中心:
EARTH
卫星名称:
一网星座-0455星
卫星全名:
一网星座-0455星 (ONEWEB-0455 )
卫星状态:
在轨 (已飞行1629 天)
发射日期:
2022-02-10 UTC
国别 :
英国 (GB)
星等 :
--
轨道信息
数据来源 国际轨道数据
星历时间: 2026-07-27T12:24:14+0800
19小时前
查看轨道信息
半长轴: 7191.15km
偏心率: 0.0017652
轨道倾角: 87.526°
近地点辐角 22.538°
升交点赤经 261.053°
平近点角 337.659°
近地点: 800.319km
远地点: 825.707km
周期: 101.148分钟
每日圈数: 14.236567
详细信息
平衡模式:
三轴稳定
覆盖范围:
全球
运营商:
一网卫星公司
运营商所在国:
英国
制造商(研发单位):
一网卫星公司
制造商所在国:
英国
使用方式:
暂无
卫星简介
OneWeb卫星网络由648颗重约125公斤的微型卫星组成,运行在1200公里的轨道上。 每颗卫星都能够提供至少每秒8千兆位的吞吐量,以使用其高吞吐量的Ku频段有效载荷为家庭和移动平台提供互联网接入。该卫星已退役。
2D轨道图
3D轨道图
轨道高度分析图
轨道倾角分析图
轨道综合分析图
查看轨道综合分析图